Regional Weather Roundup
Issued by NWS

Home | Current Version | Previous Version | Text Only | Print | Product List | Glossary On
Versions: 1 2 3 4 5 6 7 8 9 10 11 12 13 14 15 16 17 18 19 20 21 22 23 24 25 26 27 28 29 30 31 32 33 34 35 36 37 38 39 40 41 42 43 44 45 46 47 48 49 50
000
ASUS43 KLMK 230902
RWRKY
KENTUCKY REGIONAL WEATHER ROUNDUP
NATIONAL WEATHER SERVICE LOUISVILLE KY
500 AM EDT THU MAR 23 2017

NOTE "FAIR" INDICATES FEW OR NO CLOUDS BELOW 12,000 FEET
WITH NO SIGNIFICANT WEATHER AND/OR OBSTRUCTIONS TO VISIBILITY.

KYZ001>023-026-027-061>063-070>075-231000-
WESTERN AND SOUTH CENTRAL KENTUCKY

CITY           SKY/WX    TMP DP  RH WIND       PRES   REMARKS
PADUCAH        MOCLDY    42  24  49 E8        30.28F
HENDERSON      CLEAR     36  19  51 E7        30.34F WCI  30
OWENSBORO        N/A    N/A N/A N/A MISG        N/A
HOPKINSVILLE   CLEAR     36  23  59 E8        30.29F WCI  30
BOWLING GREEN  CLEAR     33  23  66 NE5       30.34S WCI  29
GLASGOW        NOT AVBL
$$

KYZ024-025-028>034-038-045-046-053-231000-
NORTH CENTRAL KENTUCKY

CITY           SKY/WX    TMP DP  RH WIND       PRES   REMARKS
LOUISVILLE/SDF PTCLDY    35  16  45 E6        30.40S WCI  30
LOUISVILLE/LOU CLEAR     34  17  50 NE5       30.41S WCI  30
FORT KNOX      CLEAR     32  19  57 NE9       30.35F WCI  24
$$

KYZ035>037-039>044-047>052-055>060-089>105-231000-
NORTHEAST KENTUCKY

CITY           SKY/WX    TMP DP  RH WIND       PRES   REMARKS
LEXINGTON      CLEAR     31  15  52 NE10      30.39S WCI  22
COVINGTON      CLEAR     30  18  60 NE14      30.43R WCI  19
FRANKFORT      CLEAR     32  15  49 NE6       30.39S WCI  26
$$

KYZ054-064>069-076>088-106>120-231000-
SOUTHEAST KENTUCKY

CITY           SKY/WX    TMP DP  RH WIND       PRES   REMARKS
JACKSON        PTCLDY    31  14  49 NE5       30.36F WCI  26
LONDON         PTCLDY    35  15  44 NE6       30.34F WCI  30
SOMERSET       CLEAR     34  14  44 E7        30.35S WCI  28
MIDDLESBORO    CLEAR     32  28  82 CALM      30.35S
MONTICELLO     MOSUNNY   34  21  59 NW7       30.34F WCI  28
$$





USA.gov is the U.S. government's official web portal to all federal, state and local government web resources and services.